Temperature
19 19 19 19 22 23 23 23 24 23 24 23 23 24 24 23 23 22 18 18 18 18 17 18 18 18 18 18 18 18 18 18 18 18 18 18 18 18 18 18 18 18 18 18 18 18 18 18 18
19 19 19 21 23 24 23 23 23 24 23 23 23 23 24 22 21 19 18 18 18 18 17 17 18 18 18 18 18 18 18 17 17 17 17 17 17 17 17 17 17 18 18 18 18 18 18 18 18
19 19 20 23 24 24 23 23 24 23 23 23 23 23 23 21 20 19 18 18 18 17 17 17 18 18 18 18 17 17 17 17 17 17 17 17 17 17 17 17 17 17 17 17 17 17 17 18 18
19 19 21 24 24 24 23 24 24 24 23 23 24 23 22 20 20 19 18 18 18 17 17 17 18 17 17 17 17 17 17 17 17 17 17 16 16 17 17 17 17 17 17 17 17 17 17 17 18
19 21 23 24 24 24 24 23 23 24 24 24 24 23 21 19 19 19 18 18 18 18 17 17 18 17 17 17 17 17 16 16 16 16 16 16 16 16 16 16 16 16 16 17 17 17 17 17 17
20 22 23 24 24 24 24 23 24 24 24 23 23 23 21 19 19 18 18 18 18 18 17 17 17 17 17 17 16 16 16 16 16 16 16 16 16 16 16 16 16 16 16 16 16 17 17 17 17
21 23 23 24 23 23 24 23 24 24 24 23 23 23 20 19 19 18 18 18 18 18 17 17 17 16 16 16 16 16 16 16 16 15 15 15 15 15 15 16 16 16 16 16 16 16 16 17 17
20 23 23 24 23 23 23 23 23 23 23 22 22 23 21 20 19 18 18 18 18 18 17 17 17 17 16 16 16 16 16 15 15 15 15 15 15 15 15 15 15 15 15 16 16 16 16 16 17
20 23 23 23 23 23 23 23 23 22 23 22 22 22 21 19 19 18 18 18 18 18 18 17 17 17 16 16 16 15 15 15 15 15 15 15 15 15 15 15 15 15 15 15 15 16 16 16 16
21 23 23 23 23 23 23 23 23 23 23 23 22 21 20 19 19 19 19 19 19 19 18 18 17 17 17 16 16 15 15 15 15 15 15 15 15 15 15 15 15 15 15 15 15 15 16 16 16
22 23 23 23 22 22 23 23 23 24 24 24 23 21 20 20 20 20 20 20 20 19 18 18 18 17 17 16 16 16 15 15 15 15 14 14 14 15 15 15 15 15 15 15 15 15 15 15 16
22 22 22 22 21 22 23 23 23 24 24 23 23 22 21 20 20 20 20 20 19 19 18 18 18 17 17 16 16 16 16 15 15 15 14 14 14 14 15 14 14 14 14 14 14 15 15 15 16
22 22 21 21 21 22 22 23 23 23 23 22 22 21 21 21 21 21 21 20 20 19 18 18 17 17 17 16 16 16 15 15 15 14 14 14 14 14 14 14 14 14 14 14 14 15 15 15 15
22 22 22 22 22 22 23 23 23 24 23 23 22 22 22 22 21 21 21 20 20 19 19 18 18 17 17 16 16 16 15 15 15 14 14 14 14 14 14 14 14 14 14 14 14 14 14 15 15
21 22 22 22 22 22 23 24 24 24 23 23 23 23 22 22 21 21 21 20 20 20 19 18 18 17 17 16 16 16 15 15 15 14 14 14 14 14 14 14 14 14 14 14 14 14 14 14 15
23 23 23 23 23 22 23 24 25 23 23 24 23 23 22 22 22 21 21 21 20 20 19 19 18 18 17 16 16 16 15 15 14 14 14 14 14 14 13 13 13 13 13 13 14 14 14 14 15
23 23 23 23 23 23 24 24 25 23 24 24 24 24 23 23 22 21 21 20 20 20 19 19 18 18 17 17 16 16 15 15 14 14 14 13 13 13 13 13 13 13 13 13 13 14 14 14 14
23 24 24 24 24 24 24 25 25 24 24 25 24 24 24 23 23 22 21 20 20 20 19 19 18 18 17 17 16 16 15 14 14 14 13 13 13 13 13 13 13 13 13 13 13 13 13 14 14
24 24 24 24 24 24 24 25 26 25 24 25 25 24 24 24 23 22 21 20 20 20 20 19 19 18 18 17 16 15 15 14 14 14 13 13 13 13 13 13 13 13 13 13 13 13 13 14 14
24 24 24 24 24 24 25 25 26 25 25 24 25 25 24 23 23 21 21 20 20 20 20 19 19 18 18 17 16 16 15 14 14 14 13 13 13 13 13 13 13 13 13 13 13 13 13 14 14
24 24 24 24 24 25 25 25 26 26 25 24 24 24 24 23 23 22 21 20 20 20 20 19 19 18 18 17 17 16 15 15 14 14 13 13 13 13 12 13 13 13 13 13 13 13 13 13 14
23 24 24 24 25 25 26 25 25 26 26 25 24 24 23 22 22 22 21 20 20 20 20 19 19 18 18 17 17 16 15 15 14 14 14 13 13 13 13 12 12 13 13 13 13 13 13 13 13
23 23 24 25 26 26 26 26 25 26 25 25 24 23 23 22 22 21 21 20 20 20 20 19 19 19 18 18 17 16 16 15 15 14 14 13 13 13 13 12 12 13 13 13 13 13 13 13 13
23 24 24 25 26 25 25 26 25 25 25 25 24 23 22 22 21 21 21 21 21 21 20 20 19 19 18 18 17 16 16 15 15 14 14 14 14 13 13 13 13 13 13 12 13 13 13 13 13
24 24 24 24 24 24 24 25 24 24 24 24 23 23 22 21 21 21 21 21 21 21 20 20 20 19 19 18 17 17 16 15 15 14 14 14 14 14 13 13 13 13 13 13 13 13 13 13 13
24 25 25 24 24 24 25 25 25 24 23 22 22 22 21 21 20 20 20 20 20 20 20 20 20 19 19 18 17 17 16 16 15 15 14 14 14 14 13 13 13 13 13 13 13 13 13 13 13
24 25 25 26 25 25 25 25 25 24 24 23 22 21 21 20 20 20 20 20 20 20 20 20 20 19 19 18 18 17 16 16 15 15 15 14 14 14 13 13 13 13 13 13 13 13 13 13 13
25 25 25 26 24 24 24 24 24 24 23 23 22 21 20 19 19 19 19 20 20 20 20 20 20 19 19 18 18 17 17 16 16 15 15 14 14 14 14 13 13 13 13 13 13 13 13 13 13
24 24 25 25 25 25 24 24 24 23 23 22 22 20 19 19 18 18 19 19 19 20 20 20 19 19 19 18 18 17 17 17 16 16 15 15 14 14 14 14 14 13 13 13 13 13 13 13 13
25 25 25 25 24 25 25 24 22 22 21 21 20 19 18 18 18 18 18 19 19 19 19 19 19 19 19 18 18 17 17 17 16 16 15 15 15 14 14 14 14 14 13 13 13 13 13 13 13
Wind_Speed
3 3 2 2 3 2 4 3 3 4 4 4 5 4 5 6 5 5 6 7 8 9 8 9 8 7 7 7 7 6 6 5 4 4 4 3 3 2 2 2 2 2 2 3 3 3 2 3 3
2 1 2 3 2 4 5 4 5 5 5 4 4 5 6 7 6 8 7 8 9 9 8 9 9 8 7 7 6 6 5 5 4 4 3 3 3 3 3 3 3 3 3 3 3 3 3 3 3
2 2 2 2 1 3 5 4 5 4 3 2 4 5 5 6 6 6 9 10 9 9 8 9 8 7 7 6 6 6 6 5 5 4 4 3 3 3 3 3 4 4 4 4 4 4 4 3 3
2 2 2 1 4 4 4 4 4 5 4 3 4 6 6 6 5 8 11 10 10 9 8 10 7 7 6 6 6 6 5 5 5 5 5 4 4 4 4 4 5 5 5 5 4 4 4 4 4
2 2 2 2 4 5 4 3 3 3 3 4 5 7 7 6 9 12 11 10 9 9 8 10 7 7 6 6 6 6 6 6 6 5 5 5 5 5 4 5 5 6 6 6 5 5 5 5 4
2 2 2 3 5 4 3 3 3 4 5 5 5 7 6 8 11 11 10 9 9 8 7 9 8 6 6 6 6 6 6 5 5 6 6 5 5 5 5 5 6 6 6 6 6 5 5 5 5
2 2 1 3 5 4 3 2 2 3 4 4 4 6 6 8 9 10 9 8 8 7 6 6 7 7 6 5 5 5 5 5 5 5 5 5 5 5 5 6 6 6 6 6 6 6 5 5 6
2 2 2 3 4 4 3 3 2 2 4 4 3 4 6 10 10 9 9 8 7 6 5 4 4 4 4 4 6 4 5 5 4 4 5 4 2 2 3 4 5 6 6 6 6 6 5 5 5
2 3 2 2 2 3 3 3 3 2 4 4 3 4 8 13 12 10 9 7 6 5 4 3 3 2 2 2 4 2 2 3 1 1 2 4 5 5 3 6 6 6 6 6 5 6 5 6 6
3 3 2 2 2 2 3 2 3 4 4 4 5 7 11 13 13 11 9 8 7 6 4 3 2 1 1 1 1 1 1 2 3 5 5 5 5 5 6 1 2 3 4 5 3 5 6 8 6
3 1 2 3 2 1 2 2 2 3 2 3 6 10 13 13 12 10 8 7 6 5 4 3 2 1 1 0 1 2 2 2 3 4 4 4 5 4 5 5 2 3 4 5 3 6 5 5 3
3 2 2 2 2 1 1 1 2 3 1 3 5 10 13 13 11 10 8 7 6 4 3 2 2 1 1 1 1 2 2 3 3 4 5 5 4 5 5 4 5 5 4 4 5 4 5 5 5
4 3 2 1 1 1 1 2 2 2 2 3 6 10 12 12 11 9 8 6 5 4 4 3 2 1 1 0 1 2 2 3 3 4 4 5 5 5 4 4 4 5 5 4 4 5 4 5 5
4 4 2 1 2 1 2 2 3 2 4 5 7 9 11 11 11 9 8 7 6 5 4 3 3 2 1 1 1 2 2 1 3 4 5 5 5 5 5 4 4 5 5 5 5 5 4 4 4
5 4 3 2 2 1 2 3 4 2 4 6 7 8 10 10 11 10 9 8 6 5 4 4 3 2 1 0 1 1 1 2 3 4 5 5 5 5 5 5 5 5 6 5 5 5 5 4 4
6 5 5 4 3 2 3 3 4 3 4 5 6 8 9 10 11 10 9 7 6 5 5 5 4 3 2 1 1 0 1 2 2 3 4 5 5 6 5 5 5 5 5 5 4 4 4 4 4
7 7 7 6 4 3 3 2 4 2 3 4 6 7 9 10 11 10 9 8 6 6 6 5 5 4 3 2 2 0 0 1 2 3 4 5 6 6 5 4 5 6 5 5 5 4 4 4 3
9 8 7 6 5 4 3 1 2 1 3 3 4 6 8 9 10 10 9 8 7 7 6 6 5 5 4 3 2 1 1 1 1 2 3 5 5 6 5 4 5 6 4 5 5 4 3 3 3
6 8 9 6 4 3 2 1 2 2 1 1 3 4 6 7 7 7 8 9 8 8 8 7 7 6 5 3 2 1 1 1 1 2 3 3 4 5 5 5 5 5 5 5 5 5 3 3 2
6 8 9 6 3 2 3 4 5 5 3 2 1 2 3 5 6 7 8 9 9 9 9 8 8 7 6 3 2 1 1 2 1 2 1 3 4 5 5 5 5 4 5 5 6 5 4 3 2
6 7 7 6 5 4 5 9 8 7 7 6 4 2 1 2 4 5 7 8 9 9 9 8 8 8 7 5 3 2 1 2 2 2 1 2 3 4 4 5 5 5 5 5 5 5 4 3 2
7 3 4 6 8 5 3 9 8 7 9 9 7 5 4 2 0 2 4 7 8 8 8 8 8 8 7 6 5 4 2 2 2 2 2 2 2 3 4 4 5 5 5 5 5 4 4 4 3
5 4 4 5 7 8 4 7 8 7 8 9 8 7 6 4 2 1 2 4 5 6 7 7 8 8 8 7 6 5 4 3 2 2 2 3 2 2 3 4 4 4 4 5 5 4 4 3 3
6 6 5 4 5 7 3 4 7 5 6 6 7 8 7 6 5 3 2 2 3 5 6 7 8 8 8 8 7 6 5 4 3 3 3 3 2 2 2 3 4 4 4 4 4 4 3 3 3
6 7 6 7 6 6 3 3 6 6 5 5 6 8 8 7 6 5 3 1 2 4 6 7 8 8 9 9 8 7 6 5 5 4 3 4 3 2 2 3 3 3 4 4 4 3 3 2 2
5 6 4 6 7 7 4 5 7 6 5 5 6 7 8 9 8 6 5 2 1 2 4 6 8 8 9 9 9 8 7 5 4 4 4 4 4 3 3 3 3 3 3 3 3 3 2 2 2
5 3 1 3 6 7 7 7 7 5 6 7 8 9 10 10 9 8 6 4 2 0 2 5 6 7 8 9 8 8 8 7 6 6 5 4 4 3 3 3 3 3 3 3 3 3 2 2 2
1 3 3 4 7 6 7 8 5 4 4 6 8 9 9 9 9 8 7 6 4 3 1 2 4 6 7 8 8 7 8 7 7 6 6 6 5 4 4 4 4 3 3 3 3 3 2 3 2
5 4 2 2 2 4 7 5 3 3 3 5 7 8 9 9 9 8 8 7 6 5 3 1 2 4 5 7 8 8 8 8 8 7 7 7 7 6 5 5 5 5 4 4 3 4 3 3 3
1 2 4 4 4 2 3 5 5 4 4 5 6 7 8 9 9 9 8 8 8 7 5 3 2 2 4 5 7 8 8 8 9 8 8 8 8 7 7 6 6 6 5 5 4 4 4 4 3
Wind_Direction
161 188 231 233 222 139 93 91 99 100 83 64 54 57 64 50 31 71 101 117 120 125 123 124 113 111 109 106 106 104 102 98 92 85 80 69 57 46 36 23 6 357 352 347 348 356 352 348 357
173 197 239 244 229 122 102 104 95 80 96 97 80 71 75 70 68 99 117 121 125 121 118 110 109 106 104 100 97 95 90 83 73 64 59 48 34 18 357 351 346 342 333 329 330 326 328 334 339
176 246 265 243 155 90 102 106 100 97 109 100 91 68 64 80 99 108 119 129 124 117 113 107 110 105 99 94 89 85 80 71 62 53 45 37 20 1 346 336 329 325 320 317 312 309 314 322 326
213 233 244 214 105 85 95 105 119 126 109 84 99 90 82 78 97 115 127 130 123 119 114 108 108 102 96 91 85 78 70 62 54 44 36 27 14 3 350 336 327 322 314 305 301 295 298 304 305
241 252 213 135 107 102 95 105 134 119 100 94 99 100 95 92 109 123 131 131 125 121 115 111 106 103 95 87 81 74 66 58 50 42 35 26 14 359 343 330 322 318 313 306 300 288 285 286 289
234 252 200 134 116 112 110 127 144 115 104 106 106 107 98 119 128 131 132 130 124 120 117 114 115 103 91 83 79 72 63 54 44 37 30 21 11 1 348 335 326 321 317 312 303 290 283 281 281
256 247 179 133 127 121 102 113 141 122 112 106 112 109 120 138 137 136 135 131 126 126 123 117 119 122 115 91 77 69 59 47 39 29 21 13 8 358 349 339 332 325 320 312 304 297 284 279 276
283 251 175 145 143 111 106 135 124 127 104 110 130 116 137 150 147 144 144 144 140 138 132 124 112 100 106 113 95 70 57 47 39 33 21 357 310 305 326 312 354 333 327 319 309 304 295 280 273
231 232 180 130 130 110 125 147 126 123 128 128 109 85 125 145 151 155 158 159 158 156 153 147 138 114 96 75 96 108 100 62 339 84 53 303 327 346 318 12 359 340 335 327 317 307 298 280 246
210 216 137 105 109 115 130 140 139 159 153 139 126 119 137 153 163 169 172 170 169 167 166 162 165 150 137 54 71 8 354 21 348 354 349 339 345 341 330 28 346 338 327 292 290 292 265 259 255
200 195 130 146 146 133 142 146 167 188 158 144 142 147 155 165 172 177 177 173 167 164 164 175 185 187 247 177 332 350 346 348 340 350 342 331 328 323 327 326 311 310 302 306 298 268 269 272 277
173 143 139 134 141 169 158 160 186 218 100 102 133 148 161 171 177 180 178 175 176 181 181 187 203 213 251 315 330 306 331 344 350 350 343 338 338 328 338 324 332 323 323 327 313 305 295 286 272
177 148 156 159 159 203 210 217 245 232 208 157 149 159 168 175 179 182 179 180 185 186 195 193 215 249 244 331 305 310 351 345 4 359 343 342 334 336 334 330 332 322 324 315 309 302 305 293 283
158 157 169 180 176 212 245 226 220 189 170 164 167 173 177 181 185 184 189 195 196 197 199 184 200 213 217 230 284 355 359 8 355 1 352 347 345 341 334 332 335 333 329 326 310 307 299 286 285
154 163 168 178 191 205 247 209 193 152 176 181 181 180 184 187 190 195 194 201 201 198 197 185 188 188 203 236 4 356 346 357 360 2 353 355 354 345 342 337 338 339 333 324 313 311 299 287 282
170 183 176 156 175 190 234 139 129 148 194 198 194 185 189 194 198 201 200 204 203 201 197 183 180 186 178 166 178 22 359 2 358 360 355 357 358 353 349 342 341 338 331 326 319 309 301 289 283
183 184 167 149 175 192 225 138 124 160 211 212 205 197 195 196 202 203 204 207 207 205 202 190 183 181 168 157 157 155 21 2 352 359 4 358 356 350 352 350 340 338 335 333 324 325 313 304 293
175 172 162 153 159 198 214 197 132 160 223 222 203 203 200 204 202 201 203 206 204 202 203 192 176 179 162 167 182 173 229 287 344 354 8 356 348 350 347 343 346 345 343 342 339 332 313 308 300
163 163 149 132 145 193 195 129 83 74 129 192 195 199 203 205 198 195 197 201 199 197 198 192 185 177 172 175 203 225 249 275 307 344 358 343 343 345 347 337 349 344 349 346 345 333 315 317 315
160 151 138 129 136 173 125 99 85 78 76 65 74 167 193 199 194 194 201 202 201 197 198 196 192 183 184 187 199 218 280 285 317 302 309 331 340 345 342 345 345 351 344 347 350 342 326 328 327
150 144 136 132 141 152 137 110 95 85 79 73 59 50 94 198 212 200 201 205 204 202 201 200 194 186 187 182 181 187 205 242 244 270 300 332 336 339 342 345 344 348 347 352 345 343 338 330 337
134 115 138 154 161 129 141 119 96 84 80 65 56 51 48 46 288 214 204 204 208 206 203 204 195 194 186 184 197 214 249 287 305 304 311 307 315 329 334 334 337 344 350 349 346 355 333 325 334
109 119 132 147 144 135 120 126 108 95 77 56 48 46 43 41 42 65 207 209 207 200 200 203 195 196 190 198 201 220 240 268 279 279 283 292 311 317 323 328 332 339 344 351 349 348 343 337 333
138 137 122 144 164 139 100 131 115 85 55 43 43 44 41 38 43 49 74 152 180 191 195 198 196 198 194 202 210 221 235 246 258 262 277 282 287 301 315 316 319 325 337 344 343 342 345 343 342
191 173 162 167 172 135 116 126 103 71 45 32 32 40 42 40 42 46 55 102 162 186 196 198 200 202 200 206 215 221 231 243 251 264 264 276 287 292 312 306 311 324 334 336 336 329 335 338 333
189 215 198 173 159 139 156 134 106 73 56 50 53 54 51 46 42 41 39 44 129 195 202 206 207 209 206 211 218 224 226 236 247 251 262 267 280 293 306 298 304 311 318 325 333 320 331 334 335
172 186 344 136 140 152 143 130 121 87 77 63 57 52 46 40 39 40 40 36 33 323 221 219 216 216 213 217 221 224 227 232 240 241 247 257 263 271 273 277 278 285 296 311 319 317 325 323 326
29 145 185 188 170 163 157 161 152 125 79 61 52 47 41 36 38 40 40 38 34 26 343 241 233 231 225 222 223 226 229 230 237 243 242 249 253 256 261 261 263 264 268 277 290 297 313 297 307
155 158 153 145 196 187 171 153 97 112 74 63 58 50 43 38 36 36 37 38 38 36 30 343 258 249 240 234 230 230 230 230 231 237 239 243 247 244 246 254 262 266 270 270 263 281 280 284 281
198 171 200 194 164 209 180 130 93 96 90 82 71 58 50 46 44 42 39 37 35 29 22 8 333 285 265 252 243 240 237 234 237 236 238 241 245 249 249 248 255 258 264 266 264 264 263 269 274
Height
1508 1507 1507 1509 1508 1506 1509 1508 1505 1506 1506 1509 1509 1508 1508 1511 1513 1521 1523 1521 1523 1524 1525 1525 1526 1527 1528 1529 1529 1530 1530 1530 1531 1531 1531 1531 1531 1531 1531 1531 1531 1531 1531 1531 1530 1530 1530 1529 1529
1508 1508 1509 1509 1505 1509 1511 1506 1507 1507 1509 1510 1510 1510 1511 1515 1518 1520 1522 1523 1525 1526 1527 1528 1527 1528 1529 1529 1530 1530 1530 1530 1531 1531 1531 1531 1530 1530 1530 1531 1530 1530 1530 1530 1530 1530 1530 1529 1529
1509 1509 1511 1506 1504 1507 1510 1507 1507 1509 1510 1510 1511 1512 1514 1518 1520 1522 1524 1524 1526 1527 1528 1528 1528 1529 1529 1530 1530 1530 1530 1530 1530 1530 1530 1530 1530 1530 1530 1530 1530 1530 1529 1529 1529 1529 1529 1529 1528
1510 1511 1510 1506 1507 1506 1506 1507 1508 1510 1511 1511 1511 1514 1517 1521 1522 1524 1525 1526 1528 1529 1530 1529 1529 1530 1530 1530 1530 1530 1530 1530 1530 1530 1530 1529 1529 1529 1529 1529 1529 1529 1528 1528 1528 1528 1528 1528 1527
1511 1510 1507 1506 1506 1506 1507 1508 1509 1509 1510 1512 1512 1515 1519 1523 1523 1525 1527 1528 1530 1531 1531 1531 1530 1531 1531 1531 1530 1530 1530 1530 1530 1529 1529 1528 1528 1528 1527 1527 1527 1527 1527 1527 1527 1527 1527 1526 1526
1512 1509 1508 1508 1507 1507 1508 1510 1510 1509 1511 1513 1514 1516 1522 1524 1525 1527 1528 1530 1531 1532 1533 1532 1531 1531 1531 1531 1531 1531 1530 1530 1530 1529 1529 1528 1527 1527 1526 1526 1526 1526 1525 1525 1525 1525 1525 1525 1525
1512 1508 1507 1506 1507 1508 1509 1511 1510 1510 1511 1514 1515 1518 1522 1525 1527 1528 1530 1531 1532 1533 1534 1534 1534 1533 1532 1532 1532 1531 1531 1530 1530 1529 1528 1528 1527 1526 1525 1525 1524 1524 1524 1523 1523 1523 1523 1523 1523
1511 1509 1507 1506 1508 1509 1510 1511 1512 1512 1513 1516 1517 1518 1522 1526 1527 1529 1530 1532 1533 1534 1534 1535 1535 1535 1535 1534 1532 1532 1531 1531 1530 1529 1528 1527 1527 1526 1525 1524 1523 1523 1522 1522 1521 1521 1521 1521 1522
1512 1511 1509 1508 1509 1510 1511 1511 1513 1514 1515 1516 1518 1519 1522 1525 1527 1529 1531 1533 1534 1535 1535 1535 1536 1536 1535 1535 1534 1533 1532 1531 1530 1530 1528 1528 1528 1527 1526 1524 1522 1522 1521 1520 1520 1520 1519 1519 1520
1511 1510 1509 1509 1509 1509 1511 1511 1513 1514 1514 1516 1518 1520 1522 1525 1527 1529 1531 1533 1534 1535 1536 1536 1536 1536 1536 1535 1535 1534 1534 1532 1531 1531 1529 1529 1527 1526 1525 1523 1521 1520 1520 1519 1518 1518 1518 1518 1520
1510 1509 1509 1510 1511 1512 1512 1512 1513 1513 1513 1515 1517 1520 1523 1525 1528 1530 1532 1533 1535 1536 1536 1536 1537 1536 1536 1536 1535 1535 1534 1532 1532 1530 1529 1528 1527 1526 1525 1524 1522 1521 1519 1519 1518 1518 1518 1518 1518
1510 1510 1511 1511 1512 1513 1512 1513 1513 1513 1514 1516 1517 1520 1522 1525 1527 1529 1531 1533 1535 1536 1536 1536 1536 1536 1536 1536 1535 1534 1534 1533 1532 1530 1529 1528 1527 1525 1524 1523 1522 1520 1519 1517 1517 1516 1516 1516 1516
1510 1511 1512 1513 1513 1513 1513 1513 1514 1514 1515 1516 1518 1520 1522 1525 1527 1530 1531 1533 1534 1535 1536 1536 1536 1536 1536 1535 1534 1534 1533 1533 1532 1529 1529 1527 1526 1525 1524 1523 1520 1520 1518 1517 1516 1516 1515 1514 1514
1510 1511 1512 1513 1513 1513 1513 1512 1513 1513 1515 1516 1518 1520 1522 1524 1527 1529 1531 1532 1534 1535 1535 1535 1535 1535 1535 1535 1535 1534 1533 1532 1531 1530 1529 1527 1526 1525 1523 1522 1520 1519 1517 1516 1515 1515 1513 1513 1512
1511 1510 1511 1511 1512 1513 1513 1511 1511 1512 1514 1516 1517 1519 1521 1524 1526 1528 1530 1532 1533 1534 1535 1535 1535 1535 1535 1535 1534 1534 1533 1532 1531 1530 1529 1527 1526 1524 1523 1521 1520 1518 1516 1515 1514 1513 1512 1511 1511
1509 1509 1511 1511 1511 1512 1514 1512 1510 1512 1513 1514 1516 1518 1520 1522 1525 1527 1529 1531 1532 1533 1534 1534 1534 1534 1534 1534 1533 1533 1533 1532 1531 1529 1528 1527 1525 1524 1522 1520 1519 1517 1516 1514 1513 1512 1511 1510 1510
1507 1508 1509 1511 1510 1511 1511 1510 1509 1511 1512 1512 1514 1515 1518 1521 1523 1525 1527 1529 1531 1532 1532 1533 1533 1533 1533 1533 1532 1532 1532 1531 1530 1529 1528 1526 1525 1523 1522 1520 1518 1517 1515 1514 1512 1511 1510 1509 1508
1507 1505 1507 1508 1508 1509 1509 1507 1507 1510 1511 1511 1512 1514 1516 1518 1521 1523 1525 1527 1529 1530 1531 1532 1532 1533 1533 1532 1533 1532 1531 1531 1530 1529 1527 1525 1524 1523 1522 1520 1518 1516 1515 1513 1511 1510 1509 1508 1507
1499 1501 1504 1506 1507 1508 1507 1506 1505 1508 1509 1510 1510 1512 1514 1516 1519 1521 1523 1525 1526 1528 1529 1531 1531 1532 1532 1532 1532 1532 1532 1531 1530 1528 1526 1525 1524 1522 1521 1520 1518 1516 1514 1512 1511 1509 1509 1508 1507
1501 1502 1505 1507 1507 1507 1506 1506 1506 1508 1509 1510 1510 1511 1513 1515 1518 1519 1521 1523 1525 1526 1528 1530 1531 1531 1531 1531 1532 1531 1530 1530 1529 1527 1526 1525 1524 1522 1521 1520 1518 1516 1514 1512 1511 1509 1508 1507 1506
1502 1502 1504 1507 1508 1506 1505 1508 1507 1508 1509 1510 1511 1512 1513 1514 1516 1518 1520 1521 1523 1525 1526 1528 1529 1530 1530 1530 1530 1530 1530 1529 1528 1528 1526 1525 1523 1522 1521 1520 1518 1516 1515 1513 1510 1509 1508 1507 1507
1506 1504 1504 1505 1505 1509 1504 1516 1510 1507 1508 1510 1511 1512 1513 1515 1516 1517 1518 1520 1521 1523 1525 1527 1528 1529 1529 1529 1530 1530 1530 1529 1529 1528 1526 1525 1523 1522 1520 1519 1518 1517 1515 1513 1511 1509 1508 1507 1507
1504 1504 1504 1503 1502 1505 1504 1509 1513 1508 1511 1511 1513 1514 1515 1515 1516 1516 1517 1518 1520 1521 1523 1524 1526 1527 1527 1528 1528 1528 1529 1528 1528 1526 1526 1525 1524 1522 1520 1519 1518 1517 1515 1513 1511 1509 1508 1507 1507
1505 1505 1505 1503 1501 1515 1513 1511 1519 1512 1514 1514 1515 1515 1516 1516 1516 1516 1516 1517 1518 1519 1521 1522 1523 1525 1526 1526 1527 1527 1527 1527 1526 1526 1525 1524 1524 1522 1521 1519 1518 1517 1515 1513 1511 1510 1508 1507 1506
1504 1505 1514 1516 1517 1519 1513 1512 1519 1515 1517 1517 1517 1517 1517 1516 1516 1515 1516 1516 1517 1518 1519 1520 1522 1523 1524 1525 1526 1526 1526 1526 1525 1525 1524 1523 1523 1522 1521 1519 1518 1517 1515 1513 1511 1510 1509 1508 1507
1501 1501 1509 1518 1519 1517 1513 1514 1516 1516 1519 1519 1519 1519 1518 1517 1516 1516 1516 1516 1516 1517 1518 1519 1520 1521 1522 1523 1524 1524 1524 1524 1524 1523 1523 1522 1522 1521 1519 1518 1517 1516 1514 1513 1511 1510 1509 1508 1507
1501 1500 1497 1500 1505 1512 1513 1514 1514 1516 1518 1519 1519 1519 1518 1518 1517 1517 1516 1516 1516 1516 1517 1517 1518 1519 1520 1521 1522 1522 1522 1522 1522 1521 1521 1521 1520 1519 1518 1517 1516 1515 1514 1512 1511 1510 1509 1508 1507
1498 1497 1499 1502 1514 1521 1521 1517 1517 1517 1518 1518 1520 1520 1520 1519 1518 1517 1517 1516 1515 1515 1515 1516 1516 1517 1518 1518 1519 1520 1520 1520 1520 1520 1519 1519 1518 1518 1517 1516 1516 1515 1513 1512 1511 1510 1508 1508 1507
1501 1502 1500 1501 1502 1514 1523 1521 1514 1517 1519 1520 1522 1522 1522 1521 1520 1519 1518 1517 1516 1515 1515 1515 1515 1515 1515 1516 1517 1517 1517 1517 1517 1517 1517 1516 1516 1516 1516 1515 1515 1514 1513 1512 1510 1509 1508 1507 1507
1495 1496 1497 1504 1510 1507 1511 1522 1517 1519 1522 1523 1524 1524 1524 1523 1521 1520 1518 1517 1516 1515 1515 1514 1514 1513 1513 1513 1514 1514 1515 1515 1515 1515 1514 1514 1514 1514 1514 1513 1513 1512 1511 1510 1509 1508 1507 1506 1506